Weather Roundup
Issued by NWS

Home | Current Version | Previous Version | Text Only | Print | Product List | Glossary On
Versions: 1 2 3 4 5 6 7 8 9 10 11 12 13 14 15 16 17 18 19 20 21 22 23 24 25 26 27 28 29 30 31 32 33 34 35 36 37 38 39 40 41 42 43 44 45 46 47 48 49 50
769
NZUS93 KARX 231210
HRRWXR

CURRENT HOURLY OBSERVATIONS ACROSS
MUCH OF THE UPPER MISSISSIPPI VALLEY
NATIONAL WEATHER SERVICE LA CROSSE WI
600 AM CST MON JAN 23 2017


...SOUTHEAST MINNESOTA...


CITY           SKY/WX    TMP DP  RH WIND       PRES   REMARKS
ROCHESTER      CLOUDY    31  31 100 W9        29.79S FOG     WCI  23
ROCHESTER/MAYO CLOUDY    32  32 100 W7        29.80S WCI  26
WINONA         CLOUDY    34  32  93 NW5       29.80F FOG     WCI  30
AUSTIN         CLOUDY    32  30  93 W3        29.80F FOG
ALBERT LEA     CLOUDY    32  32 100 CALM      29.81S
DODGE CENTER   LGT SNOW  30  30 100 CALM      29.80S
PRESTON        CLOUDY    31  30  95 NW8       29.80R FOG     WCI  24
OWATONNA       CLOUDY    32  30  93 W6        29.81F FOG     WCI  26
FARIBAULT      NOT AVBL
$$

...ELSEWHERE IN MINNESOTA...


CITY           SKY/WX    TMP DP  RH WIND       PRES   REMARKS
MINNEAPOLIS    DRIZZLE   33  31  92 W6        29.81S FOG     WCI  28
INTNL FALLS    FOG       33  32  96 SW5       29.74S VSB 1/2 WCI  29
DULUTH         DRIZZLE   34  34 100 NW7       29.74S FOG     WCI  28
RED WING       CLOUDY    34  32  93 CALM      29.80S FOG
REDWOOD FALLS  CLOUDY    34  28  79 NW8       29.83S WCI  27
MANKATO        CLOUDY    32  30  92 W6        29.83S WCI  26
WORTHINGTON    CLOUDY    31  28  89 N9        29.83S WCI  23
FAIRMONT       CLOUDY    33  28  81 NW7       29.83F WCI  27
$$

...SOUTHWEST WISCONSIN...


CITY           SKY/WX    TMP DP  RH WIND       PRES   REMARKS
LA CROSSE      CLOUDY    38  34  85 NW6       29.78F WCI  33
PRAIRIE DU CHI CLOUDY    35  33  92 NW7       29.79S WCI  29
BOSCOBEL       CLOUDY    38  35  89 CALM      29.78S
LONE ROCK      CLOUDY    36  34  92 NW7       29.77S WCI  30
PLATTEVILLE    CLOUDY    35  35 100 NW6       29.77S WCI  30
FORT MC COY    CLOUDY    34  34 100 W3        29.78S FOG
CAMP DOUGLAS   FOG       36  34  93 W6        29.76R VSB 3/4 WCI  31
MAUSTON-NEW LI FOG       35  35 100 NW3       29.76R VSB 1/2
VIROQUA        CLOUDY    33  33 100 NW7       29.76S VSB 1/4 WCI  27
WIS DELLS      CLOUDY    34  34  99 N5        29.75S FOG     WCI  30
$$

...ELSEWHERE IN WISCONSIN...


CITY           SKY/WX    TMP DP  RH WIND       PRES   REMARKS
MILWAUKEE      CLOUDY    39  36  89 NW6       29.73S WCI  35
MADISON        CLOUDY    35  34  96 NW5       29.77R WCI  31
GREEN BAY      CLOUDY    37  37 100 NW5       29.75R WCI  33
EAU CLAIRE     FOG       34  34 100 W5        29.77S VSB 1   WCI  30
BLACK RVR FLS  FOG       35  35 100 W5        29.77S VSB 3/4 WCI  31
MEDFORD        FOG       32  32 100 CALM      29.73S VSB 1/2
WAUSAU         CLOUDY    34  33  96 NW5       29.72F WCI  30
WIS RAPIDS     CLOUDY    34  34 100 CALM      29.76S
MARSHFIELD     FOG       33  32  96 NW6       29.73S VSB 3/4 WCI  28
RICE LAKE      FOG       34  34 100 W5        29.78S VSB 1/2 WCI  30
$$

...NORTHEAST IOWA...


CITY           SKY/WX    TMP DP  RH WIND       PRES   REMARKS
WATERLOO       LGT SNOW  32  31  96 NW8       29.82S FOG     WCI  25
DUBUQUE        CLOUDY    35  34  96 N9        29.77S FOG     WCI  28
DECORAH        CLOUDY    32  32 100 W3        29.78S
MASON CITY     CLOUDY    31  29  92 NW9       29.82F WCI  23
CHARLES CITY   CLOUDY    32  32 100 NW12      29.82S FOG     WCI  23
OELWEIN        CLOUDY    32  32 100 NW10      29.81R FOG     WCI  24
$$

...ELSEWHERE IN IOWA...


CITY           SKY/WX    TMP DP  RH WIND       PRES   REMARKS
DES MOINES     DRIZZLE   33  30  88 NW9       29.86S FOG     WCI  25
IOWA CITY      CLOUDY    37  34  89 NW10      29.83R WCI  30
FORT DODGE     CLOUDY    32  28  86 NW6       29.85S WCI  26
MARSHALLTOWN   CLOUDY    32  32 100 NW9       29.82F WCI  24
CEDAR RAPIDS   CLOUDY    34  33  96 NW9       29.80R FOG     WCI  27
$$

...NORTHERN ILLINOIS...


CITY           SKY/WX    TMP DP  RH WIND       PRES   REMARKS
CHICAGO-OHARE  CLOUDY    38  35  89 N13       29.73S WCI  30
CHICAGO-MIDWAY CLOUDY    39  33  79 N13G23    29.73R WCI  31
MOLINE         CLOUDY    37  33  85 NW8       29.78S WCI  31
ROCKFORD       CLOUDY    37  35  92 NW7       29.77R FOG     WCI  32
PEORIA         CLOUDY    37  35  92 N8        29.77R WCI  31
$$

NOTE: "FAIR" INDICATES FEW OR NO CLOUDS BELOW 12,000 FEET WITH NO
SIGNIFICANT WEATHER AND/OR OBSTRUCTIONS TO VISIBILITY. WIND
SPEEDS ARE IN MILES-PER-HOUR.




USA.gov is the U.S. government's official web portal to all federal, state and local government web resources and services.